Погода в Канибадаме

Таджикистан     40°17′21″N   70°25′34″E
темп.,
°C
ветер,
м/с
пор.,
м/с
влажн.,
%
обл.,
%
осадки,
мм/ч
давл.,
гПа
погр.,
м
12 августа, пт
пт1223:00+26юз611244 0.0 1008316
02:00+24юз45290 0.0 100878
05:00+23зюз45310 0.0 100962
08:00+26зсз57240 0.0 1010681
11:00+29зсз54190 0.0 10091042
14:00+33зсз65160 0.0 10061463
17:00+34з88150 0.0 10041360
20:00+30зюз813170 0.0 1005321
13 августа, сб
сб1323:00+29юз59200 0.0 1005137
02:00+27юз45220 0.0 100563
05:00+24з33270 0.0 100626
08:00+27зсз46220 0.0 1008484
11:00+31сз43170 0.0 1006877
14:00+34зсз43130 0.0 10041294
17:00+36з54120 0.0 10021460
20:00+31зюз59160 0.0 1003157
14 августа, вс
вс1423:00+30юз44180 0.0 100238
02:00+28ююз33200 0.0 100225
05:00+25з22250 0.0 100311
08:00+28зсз45200 0.0 1005406
11:00+33зсз54150 0.0 1003893
14:00+37зсз54120 0.0 10011491
17:00+37з98120 0.0 10001431
20:00+33зюз813140 0.0 1001241
15 августа, пн
пн1523:00+31юз57160 0.0 100095
02:00+29ююз45180 0.0 100063
05:00+27зюз33210 0.0 100217
08:00+32зсз46160 0.0 1003545
11:00+36зсз66110 0.0 10021365
14:00+39з77100 0.0 10002195
17:00+39з109110 0.0 9992613
20:00+33зюз711150 0.0 1000183
16 августа, вт
вт1623:00+32юз68160 0.0 1001110
02:00+30юз610170 0.0 1001134
05:00+30юз691814 0.0 1002127
08:00+33з9101577 0.0 10031076
11:00+36з1110125 0.0 10031697
14:00+37з1111120 0.0 10022157
17:00+36з1112120 0.0 10012760
20:00+32з815144 0.0 1003378